Location: ???? ?????????
(31.1304°N, 31.7111°E)
Time: 19:45:26
(UTC+00:00)

Explorer 11/Cluster Stage 4 - Visible Passes

Search period start: 28 February 2021 00:00
Search period end: 10 March 2021 00:00
Orbit: 467 x 1257 km, 28.8° (Epoch: 28 February)

Date Brightness Start Highest point End Pass type
(mag) Time Alt. Az. Time Alt. Az. Time Alt. Az.
28 Feb 8.6 01:26:33 28° SE 01:26:33 28° SE 01:32:06 10° E visible
28 Feb 7.8 03:08:41 18° WSW 03:14:21 60° SSE 03:22:25 10° E visible
01 Mar 8.7 01:16:23 27° SE 01:16:23 27° SE 01:21:00 10° E visible
01 Mar 7.6 02:58:31 23° WSW 03:03:10 63° SSE 03:11:13 10° E visible
02 Mar 8.8 01:06:09 25° ESE 01:06:09 25° ESE 01:09:52 10° E visible
02 Mar 7.5 02:48:16 30° WSW 02:52:01 66° SSE 03:00:00 10° E visible
03 Mar 9.0 00:55:52 22° ESE 00:55:52 22° ESE 00:58:43 10° E visible
03 Mar 7.3 02:38:00 38° WSW 02:40:52 68° S 02:48:46 10° E visible
04 Mar 9.2 00:45:34 18° E 00:45:34 18° E 00:47:33 10° E visible
04 Mar 7.2 02:27:41 47° WSW 02:29:45 71° S 02:37:32 10° E visible
05 Mar 9.5 00:35:15 15° E 00:35:15 15° E 00:36:22 10° E visible
05 Mar 7.0 02:17:23 58° SW 02:18:39 72° S 02:26:17 10° E visible
06 Mar 9.7 00:24:56 11° E 00:24:56 11° E 00:25:10 10° E visible
06 Mar 6.9 02:07:03 69° SSW 02:07:34 73° S 02:15:01 10° E visible
07 Mar 6.9 01:56:44 73° SSE 01:56:44 73° SSE 02:03:47 10° E visible
07 Mar 7.5 03:38:57 10° W 03:45:32 61° SSW 03:53:20 10° ESE visible
08 Mar 7.2 01:46:27 62° SE 01:46:27 62° SE 01:52:31 10° E visible
08 Mar 7.5 03:28:34 12° W 03:34:25 57° SSW 03:42:00 10° ESE visible
09 Mar 7.5 01:36:11 48° ESE 01:36:11 48° ESE 01:41:16 10° E visible
09 Mar 7.5 03:18:19 16° W 03:23:18 52° SSW 03:30:37 10° ESE visible
